BEIJING 1 1 28890U 05043A 26103.95187228 .00000357 00000+0 78224-4 0 9994 2 28890 98.2794 236.8434 0015702 120.0370 240.2391 14.63494330 91251 HUANJING 1A (HJ-1A) 1 33320U 08041A 26103.97207550 .00000525 00000+0 69392-4 0 9995 2 33320 97.6662 92.3111 0019003 354.4535 5.6466 14.83840133948887 HUANJING 1B (HJ-1B) 1 33321U 08041B 26103.98041480 .00000347 00000+0 48322-4 0 9997 2 33321 97.6506 95.6812 0037479 36.1020 324.2714 14.83198644948899 YAOGAN-4 1 33446U 08061A 26103.80465736 .00000668 00000+0 88562-4 0 9998 2 33446 97.9279 37.8081 0012860 282.1554 77.8219 14.83080528936120 DEIMOS-1 1 35681U 09041A 26103.88486025 .00000736 00000+0 11600-3 0 9996 2 35681 97.7323 263.9278 0002534 65.1442 295.0031 14.75171584897400 UK-DMC 2 1 35683U 09041C 26103.95813933 .00001010 00000+0 15408-3 0 9994 2 35683 97.8719 240.5352 0001662 94.7672 265.3728 14.75931155897096 DMC3-FM1 1 40715U 15032A 26103.95366343 .00000010 00000+0 70773-5 0 9998 2 40715 97.6561 331.6182 0003975 266.9623 93.1138 14.85667769580372 DMC3-FM2 1 40716U 15032B 26103.90856742 .00000061 00000+0 12940-4 0 9998 2 40716 97.6614 333.1042 0004579 273.9557 86.1135 14.85669549580365 DMC3-FM3 1 40717U 15032C 26103.93165332 .00000741 00000+0 91435-4 0 9991 2 40717 97.6667 334.8380 0003721 273.4006 86.6784 14.85672077580375